Location: Nitra
(0.0000°N, 18.0833°E)
Time: 00:12:54
(UTC+02:00)

Hubble Space Telescope - Pass Details

Date: 05 February 2023
Orbit: 527 x 530 km, 28.5° (Epoch: 28 March)

Event Time Altitude Azimuth Distance (km) Brightness Sun altitude
Rises 19:03:59 0° 245° (WSW) 2,647 6.1 -15.0°
Reaches altitude 10° 19:06:15 10° 248° (WSW) 1,756 4.8 -15.5°
Maximum altitude 19:10:15 63° 329° (NNW) 585 0.9 -16.5°
Enters shadow 19:12:02 31° 40° (NE) 937 1.5 -16.9°
